ECMWFFLT1_500_spd_123.txt.gz
Wind_Speed
73 73 73 74 73 73 73 72 73 73 74 75 75 76 76 76 76 76 76 76 76 76 76 76 76 76 76 77 78 80 81 81 81 80 80 79 78 77 77 77 77 75 74 74 74 74 74 74 75 75 75 75 75 75 75 75 75 75 75 76 76 77 78
73 74 74 74 74 74 73 73 73 74 75 75 76 76 77 77 77 77 76 76 76 76 75 75 75 76 76 77 78 79 80 80 80 80 79 79 78 78 78 78 78 77 75 74 74 74 74 74 75 75 75 75 75 75 75 74 75 75 76 77 77 78 78
75 75 75 75 75 74 74 74 74 75 75 76 76 77 77 77 78 77 77 76 76 75 75 75 75 76 76 77 78 78 78 78 78 78 78 79 79 79 78 79 79 78 76 75 75 75 75 75 75 75 75 75 74 74 74 74 75 76 77 77 78 79 79
76 76 76 75 75 74 74 74 74 75 75 76 77 77 78 78 78 77 76 75 75 74 75 75 75 75 76 77 77 76 76 76 77 77 78 78 79 79 79 79 79 78 77 76 75 75 75 75 75 74 74 74 74 74 74 75 75 76 77 78 79 79 80
76 76 75 75 74 74 74 74 74 75 76 76 77 77 77 77 76 75 74 73 73 73 73 74 74 74 74 75 74 74 74 75 76 77 78 78 78 79 79 79 79 78 77 76 76 76 76 75 74 73 74 74 74 74 75 75 76 77 78 79 79 80 81
76 76 75 75 74 74 74 74 75 75 76 76 76 75 74 73 73 72 72 72 72 72 72 72 72 72 73 73 73 73 74 75 76 76 77 77 78 78 79 79 78 78 77 77 76 76 75 74 73 72 73 74 75 75 75 76 77 78 79 80 80 80 81
76 75 75 74 74 74 74 75 75 75 75 74 73 72 71 70 70 70 70 70 70 70 71 71 71 72 72 72 73 73 74 75 75 76 76 77 77 78 78 78 77 77 76 76 76 75 74 74 73 72 72 74 75 76 76 78 79 78 79 80 80 80 81
75 75 74 74 74 74 74 74 73 72 71 70 69 68 68 68 68 68 68 69 69 70 70 71 71 71 71 72 72 72 73 74 75 76 76 76 77 77 77 77 76 76 75 75 74 74 73 73 72 72 73 74 76 77 78 80 80 79 79 80 80 80 81
74 74 74 73 73 73 72 71 70 69 68 67 66 66 66 67 67 68 68 69 70 70 71 71 70 70 70 70 71 72 73 74 75 75 75 75 75 75 75 75 75 75 74 74 73 72 72 73 72 72 73 75 77 79 80 81 81 80 79 80 80 79 80
73 73 73 72 71 70 69 67 66 65 65 65 65 65 66 67 68 68 69 70 70 70 70 69 69 69 69 70 71 72 73 73 74 74 73 73 73 74 74 74 73 73 73 72 72 71 72 72 72 73 75 76 78 80 81 82 82 81 80 80 80 78 79
72 71 70 69 68 67 65 64 63 63 64 64 65 66 67 68 68 69 69 69 69 69 68 68 68 69 70 71 72 72 72 72 72 72 72 72 72 73 73 72 72 71 71 72 71 71 72 72 73 74 77 78 79 81 82 82 82 81 80 80 80 78 78
70 69 67 66 64 64 63 62 62 63 64 65 66 67 68 68 69 69 69 68 68 68 68 69 69 70 71 71 71 71 71 71 71 71 71 71 71 71 71 71 71 71 71 71 71 71 72 73 75 76 78 79 80 81 82 82 82 81 81 80 79 78 77
66 65 63 62 61 61 61 62 62 64 65 66 68 69 69 68 68 68 67 67 68 68 69 69 70 70 70 70 70 70 70 69 69 70 70 70 70 70 69 69 70 70 70 71 72 73 73 75 77 78 79 80 82 82 82 82 81 81 81 80 79 77 76
62 61 60 60 60 61 61 62 63 64 66 67 68 69 69 67 66 67 67 67 68 69 69 69 69 69 69 68 68 68 68 68 69 69 69 69 69 68 68 68 69 70 71 72 74 75 76 77 79 79 80 81 82 82 82 82 81 81 81 80 78 75 73
59 59 59 60 61 61 62 62 64 65 67 68 68 69 69 66 65 67 68 68 68 69 68 68 68 67 66 65 65 66 67 67 68 69 69 69 68 68 67 68 68 71 73 75 77 78 78 79 80 81 81 82 83 82 82 82 82 81 81 79 76 73 71
59 59 60 61 61 62 62 63 65 66 67 67 67 68 69 68 66 67 68 68 68 67 67 66 65 64 64 64 64 65 66 67 68 68 68 68 67 67 68 68 70 73 76 77 79 80 80 81 81 82 83 83 83 82 82 82 82 81 79 78 75 71 68
60 60 61 62 62 63 64 64 65 66 66 67 67 68 70 69 68 68 68 67 66 65 64 63 62 62 63 63 64 65 66 67 68 68 67 67 68 68 69 71 73 76 78 79 80 81 82 82 83 84 84 84 83 83 82 82 81 79 78 77 74 69 64
62 62 62 63 63 64 64 64 65 66 67 68 68 69 70 70 69 68 67 65 64 63 62 61 61 61 62 62 63 64 65 66 67 68 68 68 69 71 72 74 76 78 79 79 80 81 83 84 84 84 84 84 84 83 83 83 81 78 77 75 70 65 61
63 63 64 64 64 64 65 65 66 67 68 68 68 68 68 68 67 66 65 63 62 61 61 60 60 61 62 62 62 63 64 66 68 69 70 71 72 74 74 75 76 78 78 79 80 81 83 84 84 84 84 83 83 83 84 84 82 78 75 70 65 62 59
64 64 64 65 65 65 66 66 66 66 66 66 66 66 66 65 64 64 63 62 61 61 60 60 61 61 62 63 63 64 65 68 70 72 73 75 76 76 76 76 77 77 78 79 80 81 81 82 82 83 84 84 84 83 81 80 78 76 72 66 61 58 56
65 65 66 66 66 66 65 65 64 64 64 63 63 63 63 63 62 62 62 61 61 61 61 61 62 62 63 65 66 67 69 71 74 76 77 78 78 77 76 77 78 78 80 80 80 79 79 80 81 83 85 84 82 79 75 73 71 70 67 62 57 54 52
66 66 66 65 64 63 62 62 61 61 61 61 61 61 62 62 62 62 62 62 62 62 62 62 63 64 65 67 69 71 73 74 76 78 79 80 79 78 78 79 80 80 80 80 79 79 79 80 81 81 81 79 76 73 69 67 65 64 62 58 54 51 49
65 64 62 61 60 59 58 58 58 58 59 59 60 61 61 62 62 63 63 63 63 63 64 64 65 67 69 70 72 73 74 75 77 78 79 79 79 79 80 81 81 81 80 80 80 80 81 80 79 77 74 71 69 67 65 63 60 58 56 54 51 49 47
59 57 56 56 55 55 56 56 57 58 58 59 60 61 62 63 64 64 65 65 65 66 67 67 69 70 72 73 74 75 76 77 77 78 78 78 79 79 80 80 80 80 81 82 82 81 80 78 75 70 66 64 63 62 60 58 56 54 52 50 48 47 47
54 54 54 54 54 55 56 56 57 58 59 61 62 63 64 65 66 67 68 69 69 70 71 71 72 73 74 74 75 75 76 77 77 77 77 77 78 79 79 79 79 81 82 83 82 79 77 73 68 64 61 59 58 57 55 53 52 51 50 48 46 46 46
53 53 53 54 55 55 56 57 59 60 61 63 64 65 67 68 69 70 71 72 72 73 73 74 74 74 74 74 75 75 75 75 75 76 76 77 78 79 80 80 80 81 81 80 78 74 70 66 63 59 56 54 53 51 49 48 48 49 48 46 45 45 44
53 53 54 55 56 57 59 60 62 63 65 66 67 68 69 71 71 72 73 73 73 73 73 73 73 74 74 74 74 75 75 75 76 77 78 78 79 79 80 79 78 77 76 74 70 67 64 62 59 56 53 50 47 45 45 45 46 47 46 46 45 44 43
54 56 57 58 59 60 62 63 65 66 67 68 69 70 70 71 72 72 73 73 73 73 73 73 73 74 74 75 76 76 77 77 77 77 77 77 77 77 76 75 73 71 68 65 63 61 59 58 56 54 50 47 44 42 41 43 44 45 45 45 45 43 42
58 59 60 61 62 63 64 65 66 68 69 69 69 70 70 70 70 71 72 72 73 73 74 74 74 75 76 77 77 77 77 76 76 75 74 73 72 71 70 68 66 64 62 60 58 57 56 55 53 51 49 46 43 41 40 42 43 43 44 44 44 42 41
60 62 63 63 64 65 66 66 67 68 69 69 69 70 69 70 70 71 72 73 75 76 76 75 75 76 75 76 76 75 74 72 71 70 68 66 65 64 63 62 61 60 58 57 56 55 54 52 51 49 47 45 43 41 41 41 41 42 42 43 42 41 41
63 64 65 65 66 66 67 67 67 68 68 68 69 70 70 71 72 73 74 75 76 76 75 75 74 74 73 72 71 70 68 66 64 63 62 61 60 60 59 58 58 57 56 55 54 53 52 51 49 48 46 45 44 43 42 41 41 41 41 41 41 41 40
65 66 66 67 67 67 67 68 67 67 68 68 69 70 71 72 73 74 74 75 75 74 73 71 70 68 66 65 64 63 61 61 60 59 58 58 58 57 57 57 56 56 55 54 52 51 51 50 49 48 47 46 45 44 43 42 42 41 41 41 41 41 40
65 65 65 66 66 67 67 67 67 68 69 70 70 71 71 71 71 71 71 71 71 70 68 65 63 60 59 59 58 58 58 57 57 57 57 57 56 56 55 55 55 55 55 53 52 51 50 50 50 49 47 46 45 44 44 43 42 42 42 42 41 41 41
64 64 64 65 66 67 67 68 68 69 69 69 70 70 69 68 66 65 64 63 63 62 61 60 59 58 58 58 58 58 58 58 57 57 57 57 57 56 56 56 56 55 55 54 53 52 51 50 50 50 49 47 46 45 44 43 43 43 43 42 42 42 41
62 64 66 67 67 67 67 67 67 67 67 66 66 65 64 62 59 58 57 58 59 60 60 61 61 61 61 62 62 62 62 61 60 60 59 59 58 58 58 57 57 57 56 55 54 53 52 52 51 50 50 49 47 46 44 43 43 43 43 42 42 42 41
63 65 67 67 67 66 65 64 63 62 61 60 59 59 58 57 57 57 58 59 60 62 63 63 64 64 64 65 65 65 65 65 64 64 63 63 62 60 60 59 58 58 57 57 56 55 54 53 52 52 51 50 48 47 45 44 44 43 43 43 42 42 41

ECMWFFLT1_500_spd_126.txt.gz
Wind_Speed
76 77 77 77 78 78 78 79 79 79 80 80 80 80 80 79 79 79 79 79 79 79 79 79 79 78 78 79 79 79 79 80 81 82 83 84 84 84 83 83 84 82 80 79 79 78 78 78 78 77 76 76 76 77 77 77 76 77 77 77 78 78 78
77 78 79 79 79 79 80 80 80 81 81 82 81 81 81 80 80 80 79 80 80 79 79 79 78 78 78 79 79 79 80 80 81 82 83 83 83 82 82 82 82 81 80 79 79 78 78 78 77 76 76 76 76 77 77 77 77 78 78 78 78 78 78
79 80 81 81 81 81 81 81 81 82 83 83 83 82 82 81 81 80 80 80 79 79 79 79 78 78 78 79 80 80 81 81 81 82 81 81 80 80 80 80 81 80 79 78 78 77 77 77 76 75 75 76 77 78 78 78 78 78 78 78 78 78 78
80 81 82 82 82 82 82 82 83 84 84 84 83 83 82 81 81 80 80 79 79 79 79 79 78 78 79 80 80 80 81 80 80 80 79 79 79 79 79 79 79 79 78 77 76 75 75 75 76 76 76 77 78 78 78 78 78 78 78 78 78 78 79
82 83 83 83 83 83 83 83 84 84 84 84 84 83 82 81 80 80 79 79 78 78 79 79 78 79 79 80 80 79 79 78 78 77 78 78 78 78 78 78 78 77 77 76 75 74 75 76 76 76 77 77 78 78 78 78 78 78 78 79 79 80 80
83 84 84 84 84 84 84 83 83 83 83 83 83 82 81 80 79 79 78 78 78 78 79 79 78 79 79 79 78 77 77 76 76 77 77 77 77 77 77 77 77 77 77 76 75 75 75 76 76 76 76 76 77 77 77 78 78 79 80 80 80 80 80
83 84 84 84 84 83 83 83 83 83 82 82 82 81 80 79 78 78 78 78 78 78 78 78 78 78 77 77 76 76 76 76 76 77 77 77 76 77 77 77 77 78 78 77 76 76 75 75 75 76 76 76 77 78 78 79 79 80 80 80 79 79 79
83 83 83 83 82 82 82 82 82 82 81 81 80 80 79 78 78 78 78 78 78 78 78 78 77 77 76 76 75 75 75 75 75 76 76 76 76 77 78 78 78 78 78 77 76 75 75 75 75 75 76 77 78 78 78 79 80 79 78 78 78 78 78
82 82 82 81 81 81 81 81 81 81 80 80 79 78 78 77 78 77 77 77 77 77 77 76 76 75 74 74 73 73 73 74 75 76 76 76 77 78 78 78 78 77 77 77 76 76 75 75 75 75 76 77 77 77 78 79 79 78 77 77 76 76 75
81 80 80 80 80 80 80 80 79 79 79 78 77 77 77 76 76 76 76 75 75 75 74 73 72 72 71 71 71 72 72 74 75 76 77 77 78 78 77 77 77 76 76 77 77 76 76 76 75 76 77 77 76 77 77 77 77 76 75 75 74 73 74
79 78 78 78 78 78 78 77 77 77 76 76 75 75 75 74 74 73 73 73 72 71 70 70 70 70 70 70 70 71 72 74 75 76 77 77 77 77 76 76 76 76 76 77 77 76 76 76 75 75 75 75 75 75 75 75 75 74 74 74 74 73 74
77 77 77 76 76 76 75 75 74 74 74 73 73 72 72 72 71 71 70 70 69 69 69 69 69 69 69 69 70 72 73 75 75 76 76 76 76 75 75 75 76 76 76 76 76 76 76 75 73 73 73 73 73 74 74 73 73 73 74 74 74 74 74
75 75 75 74 74 73 73 72 71 71 70 70 70 70 70 69 69 69 68 68 68 68 68 69 69 69 69 70 71 73 74 74 75 75 75 75 75 74 74 75 75 76 76 76 76 75 74 72 72 71 70 72 73 73 73 73 73 73 74 74 74 74 75
73 72 72 71 71 70 69 68 67 67 67 67 67 68 69 68 68 68 68 68 68 69 69 69 70 70 71 71 72 73 73 73 74 74 74 74 74 74 74 74 75 75 75 75 74 73 71 70 70 69 69 71 72 72 73 73 73 73 74 74 75 76 77
69 69 68 67 66 66 65 65 65 65 65 66 67 68 70 69 68 68 69 69 69 69 70 71 71 72 72 72 72 72 72 72 72 73 73 73 73 73 73 73 73 73 73 72 71 70 69 68 69 69 69 70 72 72 73 73 74 74 75 76 77 78 79
65 65 64 63 63 63 63 63 64 64 65 66 68 69 71 71 70 69 69 69 70 70 71 72 72 72 71 71 70 70 71 71 71 72 72 72 72 72 72 71 70 70 71 70 69 68 68 68 69 69 70 71 72 72 73 75 76 76 77 79 79 80 81
62 62 62 62 62 62 62 62 64 65 66 67 69 71 72 72 72 71 70 70 70 70 71 71 71 71 70 69 69 69 69 70 70 71 71 71 70 70 69 68 68 68 69 68 69 69 69 69 69 70 70 71 72 73 75 77 78 79 80 82 82 82 82
61 61 61 61 61 62 63 64 66 67 68 69 70 72 73 72 72 71 71 70 70 70 70 70 70 69 69 69 68 68 68 68 69 69 68 68 68 68 67 67 67 68 68 68 69 70 70 70 70 71 71 72 73 75 78 79 80 80 83 84 84 83 84
60 61 61 62 63 65 66 67 68 69 69 70 70 71 72 72 72 71 71 71 70 70 69 69 68 68 67 67 66 66 66 67 67 67 67 67 68 67 66 66 68 68 68 69 70 71 71 71 72 72 73 74 75 77 80 82 82 83 85 85 84 84 84
61 62 64 65 65 66 66 66 67 68 68 68 69 70 70 70 70 69 69 68 67 67 66 66 65 64 63 63 63 64 64 65 67 67 67 67 68 67 66 68 70 70 70 71 71 71 72 73 74 75 76 77 78 79 82 84 85 86 86 85 84 84 84
63 64 64 64 64 64 65 65 65 66 66 66 65 65 65 65 65 64 64 63 63 63 62 62 62 61 61 62 62 63 64 65 66 68 69 68 68 68 68 70 71 71 72 73 73 73 74 75 76 77 78 79 81 82 83 85 86 86 86 85 84 83 82
62 62 61 62 62 62 62 62 62 62 61 61 60 60 60 60 60 61 61 60 60 60 60 60 61 61 61 62 63 64 65 66 68 69 70 70 70 70 71 72 72 73 74 75 75 76 77 77 77 78 79 81 82 83 84 85 85 85 85 84 83 82 82
59 59 59 59 59 59 59 59 58 58 57 57 58 58 58 58 59 59 60 60 60 60 61 61 62 62 63 64 65 66 68 69 70 71 72 72 73 73 74 75 75 76 76 77 77 77 78 77 78 78 79 80 81 81 82 84 84 84 83 82 82 81 81
57 56 56 56 56 56 56 55 55 55 56 56 56 57 57 58 59 60 61 62 62 63 63 64 64 65 66 67 68 69 71 72 73 74 75 75 76 76 77 79 79 79 79 79 78 78 77 77 77 77 78 78 78 79 81 82 83 83 82 81 80 79 77
54 54 53 53 52 53 53 54 54 55 56 56 57 58 59 61 62 63 64 65 65 66 67 68 68 69 70 71 72 73 74 75 75 76 76 76 77 78 79 80 80 80 80 80 79 78 78 77 76 76 76 77 78 79 81 81 82 82 81 79 76 73 70
51 51 51 51 52 52 53 54 55 56 58 59 60 61 62 64 65 66 67 68 68 69 70 70 71 71 72 72 73 74 74 75 75 75 76 76 77 78 78 79 79 79 79 79 79 79 78 78 77 77 78 78 79 80 80 79 79 78 76 73 70 66 64
51 51 52 52 53 54 55 56 58 59 60 62 63 64 65 66 67 68 69 70 70 71 71 72 72 72 72 72 72 73 73 73 73 74 74 74 75 76 77 77 78 79 79 79 80 80 79 79 79 78 78 77 77 77 76 75 74 72 69 66 63 62 60
52 53 54 55 55 57 58 59 61 62 64 65 66 67 67 68 69 70 70 71 71 72 72 72 72 72 72 72 72 72 72 72 73 73 73 73 74 76 78 79 79 80 80 80 80 80 79 79 78 77 75 74 73 71 69 68 67 65 62 61 60 59 57
55 56 57 58 59 60 61 62 63 64 65 66 66 67 67 68 68 68 69 69 70 71 71 71 72 72 72 72 73 73 73 74 74 75 75 75 76 77 78 79 80 80 79 78 78 77 76 75 74 72 70 68 66 64 63 62 62 60 58 58 57 56 54
59 60 60 61 61 62 62 62 62 62 63 64 64 65 66 66 67 67 68 69 70 71 72 72 72 72 73 74 74 74 74 75 75 75 75 75 75 75 75 76 76 76 75 74 73 71 70 69 68 66 65 63 61 59 59 59 58 57 56 55 54 53 51
62 62 62 62 61 61 61 61 61 61 61 62 63 64 66 67 67 68 68 69 70 70 70 71 72 72 72 73 74 73 73 73 73 73 72 72 72 71 71 70 69 69 69 68 67 66 64 64 63 61 60 59 58 57 57 57 56 55 55 53 52 51 50
62 62 61 61 61 61 61 61 61 61 62 63 64 66 66 67 67 68 68 69 69 69 69 68 68 68 68 68 68 68 68 68 67 66 66 66 65 65 64 64 63 63 64 64 63 62 62 61 60 59 58 58 57 56 56 55 55 54 53 52 51 49 48
61 61 61 61 61 61 61 61 62 62 64 65 65 66 66 65 65 66 66 66 66 65 64 63 62 61 61 61 61 61 62 62 63 63 63 63 62 62 62 62 62 62 63 63 62 62 61 61 60 59 58 58 57 57 56 55 54 53 53 52 50 49 48
61 61 61 61 62 62 62 63 63 63 64 65 65 65 64 63 62 61 60 60 59 59 59 60 60 60 60 60 60 61 61 62 63 63 64 64 64 64 64 64 65 65 64 64 64 64 63 62 62 61 60 59 59 58 57 56 55 54 53 52 50 49 48
59 60 61 61 62 62 63 63 63 63 63 63 63 61 60 58 57 56 56 57 58 59 60 61 62 62 63 63 64 64 65 65 66 66 66 66 66 67 67 67 67 67 67 66 66 65 65 64 64 63 62 61 60 59 59 57 56 55 54 53 51 50 48
57 58 59 60 61 61 61 61 61 60 60 58 57 56 55 55 56 56 57 59 60 62 63 65 66 66 67 68 68 68 68 69 69 69 69 69 69 69 69 69 70 70 70 70 70 69 68 67 66 65 65 64 62 61 60 59 58 56 55 54 53 51 49

ECMWFFLT1_500_spd_129.txt.gz
Wind_Speed
78 78 78 78 78 78 79 79 79 78 78 78 77 78 79 80 81 81 81 81 82 82 83 84 84 84 84 86 87 87 87 87 86 86 86 86 86 86 86 87 88 88 87 87 87 86 86 87 87 88 87 86 86 86 85 84 84 84 83 83 82 81 81
81 81 81 81 81 81 82 82 81 80 80 79 79 79 80 81 82 82 82 83 83 84 85 85 85 85 85 87 88 87 87 87 87 87 86 86 86 86 86 87 88 89 88 88 88 87 87 87 87 87 87 86 86 86 86 85 84 84 83 82 82 81 81
83 83 83 83 84 84 84 84 83 82 82 81 81 81 82 83 83 84 84 84 84 85 86 86 86 86 86 88 88 88 87 87 87 87 86 86 86 86 86 87 88 88 89 88 88 88 87 86 86 86 86 86 86 86 86 85 84 83 83 82 82 81 80
84 84 84 85 86 86 85 84 83 83 83 83 83 83 83 84 84 84 84 85 85 85 87 87 86 86 86 87 88 87 87 87 87 87 86 85 85 86 86 86 87 88 89 89 89 88 87 86 86 86 86 86 86 85 84 83 83 83 82 82 81 80 80
85 85 86 87 87 86 85 84 84 84 84 84 83 84 84 84 84 85 85 85 86 86 87 87 86 86 86 87 87 87 87 87 87 86 86 85 85 85 86 87 88 88 89 89 89 88 87 86 86 86 85 84 84 83 83 83 82 82 81 81 80 80 80
87 88 88 87 85 84 84 84 84 84 83 83 83 83 84 84 85 86 86 86 87 87 87 87 86 86 86 87 87 87 87 87 87 86 86 85 85 86 87 87 88 88 89 89 88 87 87 85 84 83 83 82 82 82 82 82 81 81 80 80 80 81 81
88 88 87 85 83 83 83 83 83 83 82 82 83 83 84 85 86 86 87 87 87 87 87 86 86 86 86 87 87 86 87 87 86 86 86 85 86 87 87 87 87 87 87 87 86 86 84 83 82 81 81 80 80 81 81 80 80 80 80 81 82 82 83
87 85 84 83 83 83 82 82 82 82 82 83 83 84 85 86 86 87 87 87 86 86 86 86 86 86 86 86 86 85 85 85 85 85 85 85 85 86 86 86 86 86 85 85 84 83 81 80 80 79 78 78 79 79 79 79 80 81 81 82 83 83 83
83 83 82 82 82 82 82 82 82 82 83 83 84 85 86 86 86 86 86 86 85 85 85 85 85 85 85 84 84 84 83 83 83 83 83 83 84 84 84 84 84 84 83 82 81 80 79 78 77 77 77 77 78 78 79 81 82 82 82 83 83 83 82
81 81 80 80 80 81 81 82 82 83 83 84 85 85 86 85 85 85 85 85 84 84 84 84 84 83 83 82 82 81 81 81 81 81 81 81 81 82 82 82 82 82 81 80 79 78 77 77 76 76 77 78 78 79 81 82 83 82 83 83 83 81 81
79 79 79 79 80 80 81 82 82 83 83 84 84 84 84 84 84 84 84 83 83 83 82 82 82 81 80 80 79 79 78 79 79 79 79 79 79 79 80 80 80 80 79 79 78 77 77 77 76 77 78 79 80 81 82 82 83 83 83 83 82 80 80
78 79 79 79 80 80 81 81 82 82 82 83 83 83 84 83 83 82 82 81 80 80 79 79 78 78 77 77 76 76 76 76 76 77 77 77 78 78 78 78 79 79 79 78 77 77 77 77 77 79 80 80 81 82 82 82 83 83 82 82 81 80 79
78 78 78 79 79 79 80 80 80 81 81 82 82 82 81 81 80 79 78 77 76 76 75 75 75 74 73 73 73 73 74 74 75 76 76 77 78 78 78 78 79 79 79 79 79 78 78 78 79 81 81 81 82 83 83 83 82 82 82 81 80 79 79
76 76 77 77 77 77 78 78 79 79 79 79 78 78 77 77 75 74 74 73 72 72 71 71 71 71 71 71 72 72 73 74 75 76 77 78 79 79 79 79 80 80 80 80 80 80 79 80 82 82 82 82 83 82 82 82 81 81 81 81 80 79 79
74 74 75 75 75 75 75 76 76 76 75 75 74 74 73 73 72 71 70 70 70 70 70 70 71 71 71 71 72 73 74 75 77 78 79 79 80 80 80 80 80 80 81 82 82 81 81 82 82 82 81 81 81 81 80 81 81 81 80 80 79 78 76
74 73 73 73 73 72 72 72 72 71 70 70 70 70 70 70 70 69 69 69 69 70 70 71 71 72 72 72 73 74 76 77 78 79 80 80 80 81 81 81 80 81 82 82 82 81 81 80 80 80 80 80 80 80 80 80 80 79 79 78 76 75 74
71 70 69 68 68 67 66 67 67 66 66 67 67 68 69 69 70 70 70 70 70 70 70 71 72 73 74 74 75 76 78 79 80 80 80 80 80 80 80 80 80 80 81 81 80 79 79 78 79 79 79 79 79 79 79 79 78 77 76 76 74 73 72
65 64 64 63 63 63 63 64 64 65 65 66 67 68 69 70 70 70 70 70 71 71 72 73 74 74 75 75 75 76 77 78 79 78 78 78 79 79 79 78 78 78 78 78 78 78 77 77 77 78 78 78 77 77 77 77 75 75 75 74 73 72 72
61 61 61 61 61 62 62 63 64 65 65 66 68 69 70 70 70 71 71 72 72 72 73 73 73 73 73 72 73 73 74 75 76 76 75 76 77 76 75 75 75 75 75 76 76 76 75 75 75 76 76 75 75 75 75 74 73 74 74 73 72 72 73
59 60 60 61 62 62 63 63 64 65 66 67 68 69 70 70 71 71 71 71 70 70 70 70 70 70 69 69 69 69 70 71 71 71 71 72 72 71 70 71 72 72 72 73 73 73 73 73 73 73 74 74 73 74 74 74 73 73 73 73 72 73 74
59 60 61 61 62 62 63 63 64 64 65 66 67 68 68 68 68 68 68 67 67 67 66 66 66 66 66 65 65 65 65 65 66 67 68 68 68 67 68 70 70 70 71 71 71 71 72 72 71 72 72 73 73 73 73 74 74 73 73 74 74 75 76
56 57 58 59 59 60 60 61 61 62 63 63 64 64 64 64 64 65 65 64 64 64 63 63 63 63 62 62 62 62 63 63 64 66 67 67 67 67 68 70 70 70 71 71 71 71 71 71 71 71 72 72 73 73 74 75 75 75 76 77 78 79 80
53 54 55 56 56 57 58 58 59 59 59 60 60 60 61 61 61 62 62 62 61 61 61 61 61 61 61 62 62 63 63 64 65 67 68 68 68 69 70 71 71 71 71 72 72 72 72 71 72 72 73 73 74 75 76 77 78 79 81 82 82 83 83
51 51 52 52 53 54 55 55 56 56 56 57 57 58 58 59 60 60 61 61 61 61 61 61 61 62 62 63 64 65 66 66 67 69 70 70 71 72 73 74 74 74 74 74 74 74 74 74 74 75 75 76 77 78 80 81 82 83 84 84 84 84 83
50 50 51 51 51 52 53 54 54 55 56 56 57 58 59 59 60 61 62 62 62 63 63 64 64 65 66 66 67 68 69 69 70 71 72 73 74 74 75 76 77 77 78 78 77 77 77 76 77 77 78 79 80 82 83 84 84 84 84 84 84 83 82
50 50 51 51 51 52 53 54 55 56 57 58 59 59 61 61 62 63 64 65 65 65 66 67 68 69 69 70 70 71 71 71 72 73 74 75 76 77 77 78 79 79 80 80 80 80 79 79 78 78 78 79 80 81 82 82 83 83 83 83 83 82 81
52 52 52 52 53 54 55 56 57 58 60 61 62 63 64 65 66 66 67 67 67 68 69 69 70 70 70 71 71 72 72 73 73 74 75 75 76 76 77 78 79 79 80 80 80 80 80 80 79 79 78 78 78 78 79 80 81 81 81 81 82 82 81
56 56 56 56 57 58 58 59 61 62 64 65 66 66 67 68 68 69 69 68 68 68 68 69 69 69 70 70 71 71 72 73 73 73 74 74 75 76 77 77 78 79 79 79 80 80 80 80 80 80 79 78 78 78 78 79 80 81 81 82 83 82 81
61 61 61 61 62 62 62 63 64 65 66 67 68 68 68 68 69 69 68 67 67 68 68 69 70 71 71 71 72 72 72 73 73 74 74 75 76 77 77 78 79 80 80 80 81 81 81 81 81 81 81 80 80 79 80 80 81 81 82 82 82 81 79
65 65 64 64 65 65 65 65 64 65 66 67 67 68 68 68 68 69 68 67 68 69 70 70 71 71 72 72 73 73 73 73 74 74 75 75 76 76 77 77 78 79 79 80 80 80 81 81 82 81 81 81 80 80 80 80 80 80 80 80 79 77 74
66 66 66 66 66 65 65 65 65 65 66 66 67 68 67 66 67 69 68 68 69 70 71 71 70 70 71 72 72 73 73 73 73 73 73 73 73 74 74 74 74 74 75 76 77 77 77 78 78 78 78 77 77 77 76 76 76 76 76 74 73 70 68
64 64 64 64 65 65 65 64 64 65 65 66 67 67 66 65 67 68 68 68 69 70 70 70 69 69 69 69 69 69 69 69 69 69 69 68 68 68 68 68 68 68 69 70 71 71 72 72 72 72 72 71 71 71 70 70 70 70 69 68 66 64 62
60 59 60 60 61 62 62 62 62 63 63 64 65 64 64 64 65 66 66 65 65 66 66 66 66 66 65 65 64 64 63 63 64 65 65 66 66 66 66 67 67 68 68 68 68 69 69 69 69 69 69 68 67 67 66 66 65 65 65 64 63 61 59
56 56 56 56 57 58 58 59 60 61 61 62 61 61 60 61 61 61 61 61 61 60 60 60 60 61 61 61 62 62 63 63 64 65 66 67 68 69 69 70 70 71 71 71 71 71 71 70 70 70 70 69 69 68 67 66 65 65 64 64 62 61 60
50 52 52 53 53 54 54 55 55 56 57 57 56 55 55 55 55 56 56 56 57 57 57 58 59 60 61 62 63 64 65 65 66 67 67 68 69 70 71 72 73 74 74 74 74 74 74 74 73 73 72 72 71 70 69 68 67 67 66 65 64 63 62
47 48 49 49 50 50 50 50 51 51 51 51 50 50 50 50 51 52 53 55 56 58 59 59 60 61 61 61 62 62 62 63 63 64 65 66 66 67 67 69 70 71 73 73 74 75 75 75 75 75 75 75 74 73 72 71 70 69 68 67 66 65 64

ECMWFFLT1_500_spd_135.txt.gz
Wind_Speed
87 86 86 86 84 83 82 83 83 84 84 85 85 85 85 85 86 85 85 85 85 85 86 86 86 86 86 87 88 87 86 86 86 86 86 86 86 86 86 87 88 88 86 86 86 86 85 85 85 85 85 84 84 84 85 85 84 84 84 84 84 84 85
87 87 88 88 86 85 83 82 82 82 83 83 83 83 84 84 85 85 84 84 84 84 85 86 86 85 86 87 88 87 86 86 86 87 87 87 88 88 88 89 90 90 89 88 88 88 87 87 87 87 86 86 86 86 86 87 86 86 86 86 86 86 86
88 88 89 89 88 86 85 83 83 82 82 82 83 83 83 84 85 85 85 85 84 84 85 86 86 85 86 87 88 87 87 88 88 89 89 89 89 89 89 89 90 91 91 90 89 89 89 89 89 89 88 88 88 88 89 88 88 87 87 87 87 87 87
88 88 89 89 90 89 88 87 86 85 84 83 83 83 82 82 83 83 83 83 84 84 85 86 87 86 87 89 90 89 89 90 90 90 90 90 90 89 89 90 91 91 91 91 90 90 90 89 90 90 90 90 90 90 90 90 89 88 88 88 88 87 87
89 90 90 90 90 90 89 88 86 86 85 84 84 83 82 81 81 82 82 82 82 83 84 86 86 86 88 90 91 90 90 90 90 91 91 91 90 90 90 90 91 91 91 92 91 91 91 91 90 90 91 91 91 91 91 91 90 89 88 88 88 88 87
89 89 89 89 89 89 88 88 87 86 86 86 85 84 82 82 82 82 82 82 82 82 83 85 85 86 87 89 90 90 90 91 91 92 92 92 92 92 91 91 91 91 91 92 92 92 92 92 91 91 91 91 91 91 91 91 90 90 89 89 88 88 87
86 86 85 85 85 85 86 86 86 86 86 85 85 84 84 84 84 84 84 84 84 84 85 86 87 87 88 90 91 91 91 92 93 93 93 92 92 91 91 91 91 91 92 93 93 92 92 92 91 90 90 90 90 90 90 90 90 90 89 88 88 87 86
82 82 83 83 83 83 84 84 85 86 86 86 86 86 87 87 87 87 87 87 87 87 87 87 87 87 88 89 90 90 90 90 91 91 91 91 91 91 91 91 91 92 92 93 93 92 92 91 90 89 89 88 89 89 89 88 88 88 88 88 88 88 88
83 83 83 83 83 84 84 84 85 85 86 87 88 89 89 89 89 89 88 88 87 86 86 86 86 86 86 87 88 89 89 90 90 91 91 91 91 91 91 91 91 91 92 92 92 91 90 90 90 88 88 88 87 87 87 88 88 88 89 89 89 89 89
88 88 87 87 87 87 87 87 87 87 88 88 89 90 90 90 91 91 91 90 89 89 88 88 89 89 90 91 92 92 92 92 93 93 93 92 91 91 90 90 90 90 90 90 90 89 89 90 89 88 87 87 87 86 87 88 89 89 88 89 89 89 88
90 91 91 90 90 90 90 89 90 90 90 91 91 91 91 91 91 92 92 92 92 92 92 92 93 93 93 93 93 93 93 93 92 92 92 91 90 90 90 90 90 90 90 90 90 90 90 90 89 88 88 87 87 86 87 87 87 87 87 88 88 87 86
85 86 87 87 88 88 88 88 88 89 89 90 90 91 91 91 91 91 92 92 93 93 93 93 93 93 93 93 92 92 92 92 91 91 91 90 90 90 90 90 90 90 90 91 91 90 90 90 89 88 88 87 86 85 85 85 85 85 86 86 86 85 84
78 78 78 79 80 80 81 82 83 84 85 85 87 88 88 88 89 90 90 91 91 92 92 92 93 93 92 92 92 92 92 92 92 91 91 91 91 91 91 91 91 91 91 91 91 91 90 89 88 87 87 85 84 84 84 84 84 84 84 84 83 82 81
75 74 74 73 73 73 73 74 75 77 78 79 81 82 82 83 84 86 87 88 89 90 91 91 92 92 92 92 92 92 92 92 92 91 91 91 91 91 91 90 90 90 90 89 90 89 88 87 86 85 84 83 83 83 83 82 82 82 82 82 81 81 81
70 69 69 68 68 68 68 69 69 70 71 72 74 75 75 75 77 79 80 81 83 84 85 87 88 89 89 89 89 89 89 89 89 88 88 88 88 88 88 88 87 87 86 86 86 86 85 83 83 82 81 81 81 81 80 81 81 81 81 81 81 81 80
63 62 62 62 62 62 63 63 64 65 66 67 68 69 69 69 71 72 73 74 75 76 78 79 80 80 81 81 81 81 81 82 82 83 83 83 82 82 82 82 81 81 82 82 82 82 81 80 80 80 79 79 79 79 79 80 81 81 81 81 80 79 78
56 56 56 56 56 57 58 59 60 61 62 63 64 65 65 65 65 66 67 67 68 69 69 70 72 72 72 72 71 72 73 74 75 77 77 77 77 78 78 77 76 77 78 78 79 79 79 78 78 78 78 79 79 78 79 80 81 80 80 80 80 78 77
50 50 51 51 52 53 54 55 56 57 58 59 59 60 59 59 59 60 61 61 61 62 62 63 65 66 67 67 67 68 70 72 73 74 74 75 75 76 76 75 75 76 76 76 77 78 78 77 78 78 79 79 79 78 79 80 80 80 80 81 80 78 78
46 47 48 48 49 50 51 52 53 54 54 55 55 55 55 55 55 57 58 58 58 58 59 61 62 63 64 65 66 67 69 70 72 72 73 74 74 75 75 74 75 76 76 76 77 77 77 77 78 78 79 79 79 79 79 79 80 80 81 81 80 79 79
44 45 46 47 47 48 48 49 50 50 51 51 52 52 52 52 53 54 55 55 56 57 59 61 61 62 64 65 66 67 68 69 70 71 72 72 73 73 73 73 74 75 75 76 76 76 77 77 78 78 79 79 79 79 79 78 79 80 80 80 80 80 80
42 43 44 44 44 45 45 45 45 46 47 48 49 50 51 51 52 53 53 53 55 57 59 60 61 63 64 65 66 67 68 69 70 71 71 72 73 73 72 72 73 73 74 75 75 75 76 76 77 77 78 78 78 78 78 77 77 79 79 79 79 80 79
40 40 41 41 41 41 42 43 44 46 48 49 51 52 53 54 55 55 55 56 57 60 61 62 63 64 65 66 66 67 68 68 69 70 70 71 72 72 71 72 72 73 73 74 74 75 75 76 76 77 78 78 78 79 79 78 77 78 78 77 78 78 78
36 37 39 40 41 42 43 45 47 49 51 53 54 55 56 58 58 59 59 60 62 63 64 66 67 67 67 67 67 68 68 69 69 70 70 71 71 71 71 71 72 73 73 73 73 74 74 74 75 76 76 77 77 78 79 79 78 78 77 77 78 78 78
35 37 40 42 44 45 47 48 51 53 55 56 57 58 60 61 62 63 64 65 66 67 68 70 71 71 72 72 71 71 70 70 71 71 71 71 71 71 71 71 72 72 73 73 72 72 72 73 73 74 74 75 75 76 78 78 78 77 77 77 78 78 79
37 39 42 44 46 48 50 52 54 57 58 59 60 61 62 63 64 65 66 68 69 70 72 73 73 74 74 75 75 74 73 73 72 72 72 72 72 72 72 72 72 73 73 73 73 73 73 73 73 74 74 74 75 76 77 78 78 77 77 77 77 78 78
40 41 44 47 49 50 53 55 57 60 62 62 63 63 64 65 66 67 68 70 71 72 73 74 74 74 75 76 77 77 77 77 76 75 75 75 75 75 75 75 75 75 75 75 75 75 75 75 75 75 75 76 77 78 78 79 79 79 79 79 79 79 80
43 44 47 50 52 53 56 58 60 62 63 64 65 65 65 67 68 69 69 70 70 70 70 71 71 71 72 73 74 76 78 78 79 79 78 78 78 78 78 77 78 78 78 78 78 78 78 78 78 78 78 78 79 80 80 81 82 82 82 82 83 83 83
46 47 50 52 54 56 57 59 60 62 63 64 65 66 65 67 69 68 66 65 65 64 65 65 66 66 67 68 69 71 73 75 77 79 80 80 80 80 80 80 80 80 81 81 81 81 81 81 82 82 82 82 82 82 82 83 83 84 84 85 85 85 85
49 50 52 54 56 57 58 58 60 62 63 64 65 65 64 65 65 63 59 58 58 58 58 59 60 61 62 63 64 65 67 68 71 73 76 78 80 80 81 82 82 82 83 83 83 83 84 84 84 84 84 85 84 84 84 84 84 84 84 84 85 85 85
52 53 55 56 57 58 58 59 60 61 63 64 64 63 61 61 59 56 54 54 54 54 53 53 54 54 56 57 59 60 61 63 65 67 69 71 74 76 78 79 80 81 82 83 83 84 84 84 84 84 85 85 85 85 84 84 84 84 84 84 83 83 83
55 56 56 57 57 58 58 59 60 62 62 62 60 58 56 54 53 50 49 49 49 48 48 48 48 48 49 50 52 53 55 57 59 61 63 65 67 70 72 74 76 77 79 79 80 81 82 83 83 84 84 84 85 85 85 85 85 85 85 85 84 83 83
56 56 57 57 57 58 58 59 60 60 58 56 53 49 47 46 45 43 43 43 43 43 44 44 44 45 45 46 48 49 50 52 53 55 56 58 60 62 65 67 69 71 73 75 76 77 78 79 80 81 82 83 83 84 84 84 84 85 85 85 85 85 84
55 56 57 57 57 58 59 58 56 53 49 46 43 41 40 41 41 41 41 42 42 43 43 44 44 44 45 46 46 48 49 50 52 53 54 55 57 58 60 62 64 65 67 69 70 72 73 74 75 76 78 79 80 81 81 82 82 82 83 83 84 84 83
55 55 56 57 57 56 54 51 47 43 40 39 40 40 41 41 42 41 41 41 41 41 41 42 42 43 44 45 45 46 48 49 51 52 54 55 56 58 59 61 62 64 65 66 68 69 70 71 72 73 73 74 75 76 77 77 78 78 78 78 79 79 79
55 55 56 55 53 49 45 41 38 38 38 39 40 40 41 40 40 40 40 39 39 39 40 41 42 43 44 46 47 48 49 50 51 52 54 55 56 58 59 60 61 63 64 66 67 68 69 70 71 72 73 73 73 74 75 76 76 76 77 77 77 77 76
54 54 52 48 43 39 36 35 36 38 38 38 37 37 36 36 37 38 39 40 41 42 43 44 45 47 48 49 51 52 53 54 55 55 57 58 59 59 60 61 62 63 65 66 67 68 69 69 70 71 72 73 73 73 74 74 75 76 76 76 77 77 77